Location: 433rd Scouts Home(Lloyd Manor Park, Etobicoke )
(43.6722°N, 79.5542°W)
Time: 21:06:48
(UTC-04:00)

Envisat - Pass Details

Date: 17 September 2021
Orbit: 764 x 766 km, 98.2° (Epoch: 17 October)

Event Time Altitude Azimuth Distance (km) Brightness Sun altitude
Rises 04:57:09 0° 36° (NE) 3,239 7.3 -22.2°
Reaches altitude 10° 05:01:37 10° 73° (ENE) 2,304 6.6 -21.5°
Maximum altitude 05:02:50 11° 87° (E) 2,247 6.4 -21.3°
Drops below altitude 10° 05:04:03 10° 101° (E) 2,300 6.2 -21.1°
Sets 05:08:28 0° 138° (SE) 3,218 6.5 -20.3°
